Showing default

JILIN-01-05, 43023

Orbit data source: Space-Track

JILIN-01-05, 43023 is a payload satellite owned by Changguang WJ (CN) in SSO that was launched on Tue, 21 Nov 2017 UTC via a CHANG ZHENG 6 launch vehicle from the Taiyaun Space Center, China (TSC). Payload-class satellites include a variety of spacecraft equipped with specific instruments for various scientific and technological missions. These include communications satellites like Starlink; space stations such as the ISS; scientific satellites like the Hubble; Earth observation satellites from companies like Planet Labs, Umbra, and HawkEye 360; GPS; miniature CubeSats for education and research; and military/defense satellites.

Loading next visibility...
Identifier
43023, 2017-074B
Orbit
SSO
Country
Flag of CNCN / PRC
Related business
Manufacturer
HARB/CIOMP
Mission
Operational Commercial Imaging
Bus & Motor
JL-1, Unknown motor
Mass
95 kg wet, 95 kg dry
Launch date (UTC)
2017-11-21 (8 years ago)
Launch vehicle
CHANG ZHENG 6
Launch site
Taiyaun Space Center, China (TSC)
Object type
Payload
Rocket body
Debris
Shape & HBR
Box + 2 Pan, 0.8 m
Radar Cross Section
2.000 m², Medium (>0.1 m² and < 1m²)

Expand to show TLE details & history
Last TLE update: 6 hours ago

TLE from 6 hours ago
0 JILIN-01-05
1 43023U 17074B   25312.77695891  .00010705  00000-0  36609-3 0  9996
2 43023  97.4838  51.6385 0004165 297.5956  62.4862 15.30439328440251
Epoch: 2025-11-08T18:38Z
TLE epoch observation values (Epoch: 2025-11-08T18:38:49.249Z)
Latitude
0.00003°
Longitude
83.73158°
Altitude
476.285 km
Speed
7.628 km/s
True Right ascension
03h 26m 33s
True Declination
0° 00' 00"
Sunlit
Object was in full shadow at epoch
Visualization orbit readout
Latitude
Unknown
Longitude
Unknown
Altitude
Unknown
Speed
Unknown
Apparent Right ascension
Unknown
Apparent Declination
Unknown
Sunlit
N/A
Visualization observer readout
Local Sidereal Time
21:04:21
Azimuth
Unknown
Elevation
Unknown
Doppler factor
Unknown
Orbital elements
Apogee altitude
474.309 km
Perigee altitude
468.603 km
Semi-major axis
6,849.593 km
Eccentricity
0.00042
Inclination
97.4838°
RAAN
51.6385°
Arg. of periapsis
297.5956°
True anomaly
62.52854°
Mean anomaly
62.4862°
Eccentric anomaly
62.50737°
Mean motion
3.82865 °/min
Orbital period
94.03 mins
BSTAR
0.00036609
Loading maneuver chart data...
Computing Atmospheric mass density...
Loading historical data...
Loading historical data...
Loading historical data...
Loading historical data...
Loading historical data...
Loading historical data...
Loading historical data...
Other satellites on launch #74 in the year 2017 (2017-11-21 UTC)

Documentation

Showing up to 5 results
|